Home > Weather > Debrecen > Past weeks

Flag for Hungary Weather for the Past 2 Weeks in Debrecen, Hungary

Now
68 °F

Sunny.


Feels Like: 68 °F
Forecast: 51 / 69 °F
Wind: 12 mph from Northeast

Location: Debrecen Airport

Current Time: May 5, 2016 at 9:12:15 PM

Latest Report: May 5, 2016 at 5:45 PM


Visibility: 10 mi

Pressure: 30.07 "Hg

Humidity: 40%

Dew Point: 43 °F

Location of DebrecenLocation

Historic Weather in Debrecen — Graph

°F

Debrecen Temperature Yesterday

Maximum temperature yesterday: 72 °F (at 4:45 PM)
Minimum temperature yesterday: 54 °F (at 5:45 AM)
Average temperature yesterday: 63 °F

High & Low Weather Summary for the Past Weeks

 TemperatureHumidityPressure
High73 °F (May 5, 12:45 PM)100% (Apr 30, 7:15 AM)30.36 "Hg (Apr 30, 7:15 AM)
Low32 °F (Apr 21, 5:15 AM)23% (Apr 23, 2:45 PM)29.50 "Hg (Apr 24, 5:15 AM)
Average56 °F57%29.93 "Hg
* Reported Apr 20 5:15 PM — May 5 5:45 PM, Debrecen, Weather by CustomWeather, © 2016

Note: Actual official high and low records may vary slightly from our data, if they occured in-between our weather recording intervals... More about our weather records

Advertising

Debrecen Weather History for the Previous 24 Hours

Scroll right to see more
 ConditionsComfort  
Time TempWeatherWind HumidityBarometerVisibility
5:45 PM
Thu, May 5
68 °FSunny.12 mph40%30.07 "Hg10 mi
5:15 PM68 °FSunny.14 mph38%30.07 "Hg10 mi
4:45 PM68 °FSunny.8 mph38%30.07 "Hg10 mi
4:15 PM68 °FSunny.16 mph40%30.07 "Hg10 mi
3:45 PM66 °FPartly sunny.20 mph46%30.09 "HgN/A
3:15 PM72 °FSunny.10 mph31%30.07 "Hg10 mi
2:45 PM68 °FSprinkles. Partly sunny.15 mph33%30.07 "HgN/A
2:15 PM73 °FSprinkles. Partly sunny.12 mph31%30.07 "HgN/A
1:45 PM73 °FSunny.14 mph31%30.07 "Hg10 mi
1:15 PM72 °FSunny.13 mph33%30.09 "Hg10 mi
12:45 PM73 °FSunny.15 mph31%30.09 "Hg10 mi
12:15 PM72 °FSunny.13 mph36%30.09 "Hg10 mi
11:45 AM70 °FSunny.16 mph40%30.09 "Hg10 mi
11:15 AM70 °FSunny.14 mph43%30.09 "Hg10 mi
10:45 AM68 °FSunny.14 mph46%30.09 "Hg10 mi
10:15 AM66 °FSunny.16 mph52%30.12 "Hg10 mi
9:45 AM66 °FSunny.16 mph49%30.09 "Hg10 mi
9:15 AM64 °FSunny.16 mph56%30.09 "Hg10 mi
8:45 AM63 °FSunny.15 mph59%30.09 "Hg10 mi
8:15 AM61 °FSunny.16 mph63%30.09 "Hg10 mi
7:45 AM59 °FSunny.17 mph68%30.09 "Hg10 mi
7:15 AM57 °FSunny.16 mph67%30.09 "Hg10 mi
6:55 AM57 °FCool.16 mph67%30.09 "HgN/A
6:45 AM57 °FSunny.16 mph67%30.09 "Hg10 mi
6:15 AM55 °FSunny.15 mph72%30.09 "Hg10 mi
5:45 AM55 °FClear.14 mph67%30.07 "Hg10 mi
5:15 AM55 °FClear.13 mph67%30.07 "Hg10 mi
4:45 AM55 °FClear.14 mph67%30.07 "Hg10 mi
11:45 PM
Wed, May 4
59 °FClear.8 mph48%30.04 "Hg10 mi
11:15 PM57 °FClear.5 mph51%30.04 "Hg10 mi
10:45 PM59 °FClear.6 mph48%30.04 "Hg10 mi
10:15 PM59 °FClear.7 mph48%30.01 "Hg10 mi
9:45 PM59 °FClear.6 mph45%30.01 "Hg10 mi
9:15 PM61 °FClear.7 mph45%30.01 "Hg10 mi
Weather by CustomWeather, © 2016

See weather overviewHow to use our weather pages